Weather History for KMFD - February, 2014

Change the Weather History Date:

Wednesday, February 19, 2014

  Actual Average Record
Temperature  
Mean Temperature 38 °F 29 °F  
Max Temperature 48 °F 37 °F 65 °F (1939)
Min Temperature 27 °F 21 °F -12 °F (1936)
Degree Days  
Heating Degree Days 27 36  
Month to date heating degree days 872 715  
Since 1 July heating degree days 4694 4315  
Cooling Degree Days 0 0  
Month to date cooling degree days 0 0  
Year to date cooling degree days 0 0  
Moisture  
Dew Point 30 °F    
Average Humidity 69    
Maximum Humidity 92    
Minimum Humidity 46    
Precipitation  
Precipitation 0.00 in 0.08 in 0.75 in (1988)
Month to date precipitation 2.51 1.60  
Year to date precipitation 4.53 4.47  
Snow  
Snow 0.00 in 0.40 in - ()
Month to date snowfall 14.7 7.7  
Since 1 July snowfall 51.2 34.2  
Snow Depth 0.00 in    
Sea Level Pressure  
Sea Level Pressure 29.87 in    
Wind  
Wind Speed 12 mph (SW)    
Max Wind Speed 23 mph    
Max Gust Speed 31 mph    
Visibility 9 miles    
Events      
T = Trace of Precipitation, MM = Missing Value Source: NWS Daily Summary

Daily Weather History Graph

Daily Weather History Graph

Search for Another Location

Airport or City:

Trip Planner

Search our weather history database for the weather conditions in past years. The results will help you decide how hot, cold, wet, or windy it might be!

Date:

Astronomy

Feb. 19, 2014 Rise Set
Actual Time 7:18 AM EST 6:09 PM EST
Civil Twilight 6:50 AM EST 6:37 PM EST
Nautical Twilight 6:18 AM EST 7:09 PM EST
Astronomical Twilight 5:47 AM EST 7:41 PM EST
Moon 11:04 PM EST (2/19) 9:22 AM EST (2/19)
Length of Visible Light 11h 46m
Length of Day
10h 50m
Waning Gibbous, 80% of the Moon is Illuminated
Feb 19
Waning Gibbous
Feb 22
Last Quarter
Mar 1
New
Mar 8
First Quarter
Mar 16
Full

Hourly Weather History & Observations

Time (EST) Temp. Windchill Dew Point Humidity Pressure Visibility Wind Dir Wind Speed Gust Speed Precip Events Conditions
12:52 AM 43.0 °F 34.8 °F 25.0 °F 49% 29.78 in 10.0 mi South 18.4 mph - N/A   Clear
1:52 AM 45.0 °F 37.1 °F 27.0 °F 49% 29.74 in 10.0 mi SSW 19.6 mph 26.5 mph N/A   Overcast
2:52 AM 48.0 °F - 28.9 °F 48% 29.71 in 10.0 mi SW 15.0 mph 31.1 mph N/A   Overcast
3:52 AM 45.0 °F 38.2 °F 30.0 °F 56% 29.68 in 10.0 mi SSW 15.0 mph - N/A   Clear
4:52 AM 44.1 °F 37.1 °F 30.9 °F 60% 29.66 in 10.0 mi SSW 15.0 mph - N/A   Clear
5:52 AM 44.1 °F 38.1 °F 33.1 °F 65% 29.66 in 10.0 mi SW 11.5 mph - N/A   Scattered Clouds
6:52 AM 43.0 °F 36.8 °F 33.1 °F 68% 29.66 in 10.0 mi SW 11.5 mph - N/A   Clear
7:52 AM 42.1 °F 36.1 °F 34.0 °F 73% 29.68 in 10.0 mi SW 10.4 mph - N/A   Clear
8:52 AM 43.0 °F 35.7 °F 34.0 °F 71% 29.69 in 10.0 mi SW 15.0 mph 21.9 mph N/A   Clear
9:52 AM 43.0 °F 35.7 °F 33.1 °F 68% 29.72 in 10.0 mi WSW 15.0 mph 27.6 mph N/A   Clear
10:52 AM 41.0 °F 33.5 °F 32.0 °F 70% 29.75 in 10.0 mi WSW 13.8 mph 25.3 mph N/A   Clear
11:52 AM 39.9 °F 31.1 °F 30.0 °F 68% 29.80 in 10.0 mi West 17.3 mph 23.0 mph N/A   Partly Cloudy
12:52 PM 39.0 °F 29.9 °F 28.9 °F 67% 29.83 in 10.0 mi West 17.3 mph 31.1 mph N/A   Clear
1:52 PM 37.9 °F 28.9 °F 28.9 °F 70% 29.89 in 9.0 mi West 16.1 mph 23.0 mph N/A   Mostly Cloudy
2:52 PM 37.9 °F 30.0 °F 28.9 °F 70% 29.91 in 8.0 mi West 12.7 mph 21.9 mph N/A   Clear
3:52 PM 39.0 °F 31.8 °F 30.0 °F 70% 29.97 in 9.0 mi West 11.5 mph 23.0 mph N/A   Clear
4:52 PM 37.9 °F 32.1 °F 30.9 °F 76% 30.01 in 9.0 mi West 8.1 mph 18.4 mph N/A   Clear
5:52 PM 37.0 °F 31.6 °F 30.0 °F 76% 30.05 in 9.0 mi WSW 6.9 mph - N/A   Clear
6:52 PM 35.1 °F 27.4 °F 30.0 °F 82% 30.10 in 7.0 mi SSW 10.4 mph - N/A   Clear
7:52 PM 34.0 °F 28.0 °F 28.9 °F 82% 30.12 in 7.0 mi SSW 6.9 mph - N/A   Clear
8:52 PM 30.0 °F 24.1 °F 27.0 °F 88% 30.11 in 6.0 mi SSW 5.8 mph - N/A   Clear
9:52 PM 30.9 °F 23.5 °F 27.0 °F 85% 30.10 in 7.0 mi South 8.1 mph - N/A   Clear
10:52 PM 28.9 °F 21.9 °F 27.0 °F 92% 30.09 in 5.0 mi SSE 6.9 mph - N/A   Clear
11:52 PM 28.0 °F 24.2 °F 26.1 °F 92% 30.06 in 4.0 mi ENE 3.5 mph - N/A   Clear